This is the latest recevied weather packets stored in our database for station/object KQ4WWD. If no packets are shown the sender has not sent any weather packets the latest 10 day(s).
| Time | Temp. | Humidity | Pressure | Rain* | Wind** | Luminosity | Snow |
|---|---|---|---|---|---|---|---|
| 1777570553 | 30.56° C | 58% | 1010.6 hPa | 0 mm | - | 734 W/m² | - |
| 1777570250 | 30° C | 58% | 1010.7 hPa | 0 mm | - | 770 W/m² | - |
| 1777569951 | 30° C | 60% | 1010.8 hPa | 0 mm | - | 800 W/m² | - |
| 1777569647 | 30.56° C | 59% | 1010.9 hPa | 0 mm | - | 202 W/m² | - |
| 1777569343 | 31.11° C | 57% | 1011.1 hPa | 0 mm | - | 419 W/m² | - |
| 1777569039 | 30.56° C | 56% | 1011.2 hPa | 0 mm | - | 682 W/m² | - |
| 1777568736 | 30° C | 58% | 1011.4 hPa | 0 mm | - | 784 W/m² | - |
| 1777568434 | 30.56° C | 56% | 1011.6 hPa | 0 mm | - | 765 W/m² | - |
| 1777568131 | 30.56° C | 56% | 1011.7 hPa | 0 mm | - | 741 W/m² | - |
| 1777567827 | 30.56° C | 56% | 1011.4 hPa | 0 mm | - | 679 W/m² | - |
| 1777567523 | 30.56° C | 52% | 1011.6 hPa | 0 mm | - | 689 W/m² | - |
| 1777567221 | 30° C | 50% | 1011.5 hPa | 0 mm | - | 690 W/m² | - |
| 1777566919 | 30.56° C | 53% | 1011.5 hPa | 0 mm | - | 678 W/m² | - |
| 1777566617 | 30.56° C | 54% | 1011.2 hPa | 0 mm | - | 619 W/m² | - |
| 1777566314 | 30° C | 57% | 1011.5 hPa | 0 mm | - | 651 W/m² | - |
| 1777566012 | 30° C | 56% | 1011.3 hPa | 0 mm | - | 248 W/m² | - |
| 1777565707 | 29.44° C | 58% | 1011.2 hPa | 0 mm | - | 848 W/m² | - |
| 1777565404 | 29.44° C | 58% | 1011.3 hPa | 0 mm | - | 333 W/m² | - |
| 1777565100 | 30° C | 56% | 1011.6 hPa | 0 mm | - | 492 W/m² | - |
| 1777564795 | 28.89° C | 61% | 1011.5 hPa | 0 mm | - | 924 W/m² | - |
| 1777564490 | 29.44° C | 63% | 1011.7 hPa | 0 mm | - | 407 W/m² | - |
| 1777564186 | 30° C | 62% | 1011.8 hPa | 0 mm | - | 730 W/m² | - |
| 1777563883 | 29.44° C | 62% | 1011.6 hPa | 0 mm | - | 860 W/m² | - |
| 1777563579 | 29.44° C | 64% | 1011.8 hPa | 0 mm | - | 797 W/m² | - |
| 1777563279 | 28.89° C | 62% | 1011.5 hPa | 0 mm | - | 741 W/m² | - |
* Rain latest hour (hover to see other rain measurements)
** Current wind speed in m/s (hover to see current wind gust speed)